Temp
78 80 83 83 83 83 83 83 83 83 83 83 83 83 83 83 83 83 83 84 84 84 84 84 84 84 84 84 84 84 83 83 84 84 84 84 83 83 83 84 83 83 83
80 81 83 83 83 83 83 83 83 83 83 83 83 83 84 84 84 83 84 84 84 84 84 84 84 84 84 84 84 84 83 83 84 85 85 85 84 84 84 84 83 83 83
81 82 83 83 83 83 83 83 83 83 83 83 84 84 84 84 84 84 84 84 84 84 84 84 84 84 84 84 84 84 84 83 84 85 84 81 82 84 84 84 83 83 83
82 81 82 82 83 83 83 83 83 84 84 83 84 84 84 84 84 84 84 84 84 84 84 84 84 84 84 84 84 84 84 84 82 82 78 82 84 84 83 83 83 83 83
83 82 82 83 83 83 83 83 84 84 84 84 84 84 84 84 84 84 84 84 84 84 85 84 84 84 84 83 82 83 83 81 84 78 77 75 77 83 83 83 83 83 83
83 81 83 83 83 84 84 84 84 84 84 84 84 84 84 85 85 85 84 85 84 85 84 84 84 85 84 83 83 83 83 82 83 76 75 80 78 83 83 84 83 83 82
81 81 82 83 83 83 84 84 84 84 84 84 84 84 84 85 85 85 84 84 85 84 84 84 84 84 84 83 84 83 83 84 77 76 75 77 78 83 83 83 83 83 82
80 81 82 83 83 83 84 84 84 84 84 84 84 84 84 85 84 84 84 85 84 85 85 84 84 84 84 84 84 83 82 84 81 76 76 75 80 83 83 83 82 83 82
83 81 81 81 83 84 84 84 84 84 84 84 84 84 84 84 84 84 84 84 85 84 84 84 84 84 84 84 83 83 84 84 78 74 77 75 79 83 83 83 82 82 82
83 80 79 79 79 79 81 84 84 84 84 84 84 84 84 84 84 82 82 81 84 84 85 85 84 84 83 83 84 84 84 84 78 74 72 73 79 83 83 83 82 82 82
81 81 81 80 78 78 79 82 83 84 84 84 83 84 83 79 76 77 79 80 82 85 84 83 84 84 84 83 84 84 84 77 77 75 73 77 79 83 83 83 82 82 82
80 81 82 81 81 80 85 80 77 80 78 78 77 78 77 74 73 77 77 79 80 83 84 84 84 84 84 78 79 83 78 78 78 78 75 81 81 83 84 83 82 82 82
84 84 83 84 83 83 83 79 79 79 78 78 77 78 75 74 72 71 71 71 73 79 76 81 80 80 79 77 74 75 77 78 78 75 77 81 82 83 84 83 82 82 82
85 87 86 86 84 83 80 80 80 80 80 79 79 78 74 72 72 71 71 71 73 74 75 74 73 79 76 77 79 78 75 76 78 75 77 80 81 83 83 83 83 82 82
82 84 87 86 84 82 81 82 82 82 80 79 81 76 75 74 71 72 72 72 73 72 71 72 73 76 77 78 78 76 79 75 79 73 78 81 81 81 82 83 83 83 83
82 84 86 86 82 84 80 80 77 78 75 74 74 76 75 73 73 73 73 73 73 74 73 72 73 73 74 76 77 79 78 80 79 80 79 79 82 81 82 83 83 83 83
86 86 83 83 83 82 81 81 79 75 75 72 73 78 79 78 74 74 73 74 74 76 74 74 73 73 73 75 76 81 81 81 81 81 77 77 79 82 82 82 82 82 83
88 86 86 90 85 81 81 79 81 81 74 74 74 79 81 77 77 74 72 72 73 74 74 73 72 71 72 72 72 77 80 81 80 80 79 80 78 80 81 81 81 82 82
87 87 85 85 84 83 80 79 79 81 79 80 82 81 80 79 78 74 73 73 73 71 72 73 72 73 72 72 74 75 78 78 80 85 81 81 78 76 76 80 80 81 82
75 75 84 84 84 84 81 79 78 79 79 80 83 81 81 75 76 76 75 74 73 72 72 73 72 72 72 71 77 75 73 78 80 77 80 83 78 79 78 78 78 79 80
76 77 82 82 80 83 78 77 76 76 77 78 81 83 81 77 76 75 74 75 74 73 74 74 73 73 72 72 71 71 72 72 72 76 81 78 80 81 76 75 78 78 79
76 77 74 79 80 81 80 79 78 78 78 79 79 81 82 78 76 74 74 74 75 74 74 73 73 70 72 72 69 67 65 69 74 75 74 77 76 78 79 76 79 76 76
75 75 75 75 81 80 80 79 77 76 76 76 77 78 81 79 77 76 76 75 75 75 73 74 73 72 69 71 73 69 64 63 66 70 72 72 73 74 75 76 79 77 77
78 79 81 83 78 80 80 78 76 74 72 81 76 81 79 78 76 77 76 76 75 75 73 75 77 73 71 70 71 75 71 70 64 64 69 71 71 72 74 73 74 77 81
89 86 84 81 78 79 78 77 74 74 74 77 75 74 76 74 75 75 75 76 75 74 75 74 75 74 74 72 70 71 71 70 70 67 65 67 69 70 74 73 76 74 76
85 85 84 80 78 78 78 77 76 74 74 72 75 70 71 71 73 74 75 75 78 75 75 74 74 75 74 73 72 72 70 69 67 67 65 66 68 72 73 73 72 74 79
MSLP
1014.17 1014.38 1014.78 1015.06 1015.50 1015.92 1016.26 1016.47 1016.67 1016.79 1016.84 1016.91 1017.00 1017.11 1017.32 1017.46 1017.61 1017.81 1017.92 1017.99 1018.15 1018.25 1018.37 1018.50 1018.55 1018.71 1018.73 1018.84 1018.99 1019.23 1019.47 1019.59 1019.59 1019.61 1019.65 1019.78 1019.94 1020.18 1020.36 1020.51 1020.35 1020.46 1020.46
1013.46 1014.11 1014.73 1015.09 1015.53 1015.97 1016.36 1016.71 1016.93 1017.03 1017.08 1017.13 1017.26 1017.43 1017.60 1017.76 1017.90 1018.05 1018.19 1018.31 1018.38 1018.46 1018.56 1018.62 1018.71 1018.85 1019.05 1019.23 1019.25 1019.48 1019.63 1019.86 1019.89 1019.75 1019.83 1019.97 1020.15 1020.40 1020.27 1020.34 1020.67 1020.70 1020.58
1013.43 1013.95 1014.61 1015.12 1015.55 1016.03 1016.46 1016.76 1017.05 1017.28 1017.30 1017.37 1017.54 1017.66 1017.77 1017.98 1018.14 1018.30 1018.46 1018.60 1018.59 1018.67 1018.82 1018.92 1019.02 1019.23 1019.40 1019.41 1019.72 1019.76 1019.70 1019.81 1019.88 1019.83 1019.92 1020.18 1020.23 1020.30 1020.38 1020.48 1020.69 1020.93 1020.84
1013.34 1013.96 1014.54 1015.10 1015.60 1016.03 1016.63 1016.97 1017.15 1017.34 1017.46 1017.61 1017.77 1017.90 1018.07 1018.25 1018.40 1018.55 1018.78 1018.85 1018.91 1018.91 1018.99 1019.15 1019.37 1019.43 1019.58 1019.68 1019.98 1019.91 1019.97 1020.03 1020.06 1020.18 1020.39 1020.33 1020.38 1020.54 1020.54 1020.62 1020.73 1020.98 1021.07
1013.51 1014.07 1014.51 1015.04 1015.63 1016.05 1016.51 1016.97 1017.17 1017.33 1017.57 1017.78 1017.91 1018.02 1018.14 1018.30 1018.45 1018.68 1018.84 1019.04 1019.12 1019.19 1019.24 1019.34 1019.53 1019.61 1019.69 1019.75 1020.01 1019.92 1020.11 1020.21 1020.20 1020.44 1020.53 1020.58 1020.57 1020.71 1020.76 1020.65 1020.89 1021.08 1021.33
1013.43 1014.14 1014.51 1015.07 1015.58 1016.05 1016.46 1016.81 1017.05 1017.38 1017.68 1017.79 1017.93 1018.08 1018.25 1018.37 1018.53 1018.79 1019.03 1019.08 1019.21 1019.28 1019.39 1019.54 1019.72 1019.85 1019.84 1019.87 1019.96 1020.12 1020.15 1020.03 1020.06 1020.52 1020.51 1020.52 1020.54 1020.73 1020.82 1020.76 1020.99 1021.27 1021.60
1013.62 1014.18 1014.47 1014.94 1015.55 1015.96 1016.42 1016.64 1016.98 1017.31 1017.55 1017.76 1017.93 1018.10 1018.22 1018.37 1018.52 1018.80 1019.00 1019.17 1019.21 1019.33 1019.55 1019.70 1019.90 1020.02 1019.97 1020.00 1019.89 1020.17 1020.20 1020.19 1020.39 1020.40 1020.68 1020.74 1020.73 1020.70 1020.98 1020.99 1021.19 1021.38 1021.64
1013.15 1014.07 1014.57 1014.87 1015.38 1015.88 1016.26 1016.60 1016.85 1017.11 1017.43 1017.66 1017.90 1018.10 1018.18 1018.20 1018.34 1018.64 1018.85 1019.04 1019.26 1019.36 1019.42 1019.70 1019.88 1020.03 1020.04 1020.06 1020.06 1020.00 1020.07 1020.40 1020.62 1020.82 1020.78 1020.77 1020.92 1021.01 1021.06 1021.19 1021.34 1021.46 1021.71
1013.10 1013.99 1014.43 1014.93 1015.38 1015.82 1016.13 1016.45 1016.77 1016.99 1017.36 1017.64 1017.92 1018.09 1018.19 1018.21 1018.22 1018.33 1018.61 1018.94 1019.06 1019.37 1019.36 1019.58 1019.75 1019.98 1020.12 1020.11 1020.14 1020.03 1020.02 1020.39 1020.67 1021.03 1020.91 1020.64 1021.04 1021.27 1021.15 1021.39 1021.48 1021.68 1021.92
1013.22 1013.89 1014.62 1014.96 1015.42 1015.91 1016.16 1016.38 1016.66 1016.98 1017.38 1017.70 1018.02 1018.13 1018.16 1018.11 1018.03 1018.34 1018.62 1018.97 1019.00 1019.10 1019.21 1019.34 1019.54 1019.77 1019.96 1020.02 1020.02 1019.96 1020.01 1020.04 1020.70 1020.90 1020.88 1020.94 1020.84 1021.13 1021.12 1021.27 1021.41 1021.64 1021.90
1013.46 1013.82 1014.30 1014.74 1015.29 1015.78 1016.17 1016.49 1016.77 1016.98 1017.30 1017.59 1017.87 1017.95 1018.03 1018.03 1018.21 1018.39 1018.60 1019.03 1019.11 1018.80 1019.07 1019.16 1019.25 1019.43 1019.58 1019.71 1019.77 1019.79 1019.84 1020.05 1020.31 1020.95 1020.78 1020.62 1020.56 1020.91 1021.00 1020.89 1021.25 1021.58 1021.79
1013.20 1013.71 1013.92 1014.27 1014.73 1015.29 1015.57 1016.10 1016.68 1016.86 1017.08 1017.37 1017.72 1017.92 1018.08 1018.37 1018.30 1018.09 1018.39 1018.75 1019.03 1018.80 1018.91 1018.92 1018.99 1019.09 1019.18 1019.47 1019.53 1019.61 1019.70 1019.82 1020.10 1019.85 1020.26 1019.98 1020.50 1020.76 1020.66 1020.61 1020.98 1021.42 1021.67
1012.15 1012.87 1013.33 1013.69 1013.99 1014.39 1014.96 1015.75 1016.21 1016.51 1016.76 1017.08 1017.35 1017.51 1017.72 1018.21 1018.01 1017.76 1018.44 1018.65 1018.83 1018.61 1018.82 1018.86 1018.93 1018.95 1018.92 1019.15 1019.44 1019.42 1019.43 1019.54 1019.51 1019.87 1019.98 1020.15 1020.10 1020.27 1020.24 1020.35 1020.55 1021.17 1021.47
1011.44 1012.08 1012.67 1013.13 1013.67 1014.04 1014.59 1015.19 1015.56 1015.73 1016.10 1016.59 1016.67 1017.28 1017.69 1017.96 1018.04 1018.07 1018.28 1018.40 1018.52 1018.45 1018.63 1018.79 1018.99 1018.75 1018.73 1018.76 1018.74 1018.87 1019.17 1019.39 1019.57 1019.64 1019.75 1019.27 1019.77 1020.01 1020.14 1020.13 1020.35 1020.64 1021.02
1011.14 1011.55 1012.34 1012.81 1013.36 1013.79 1014.34 1014.87 1015.13 1015.21 1015.71 1016.02 1016.14 1016.62 1017.25 1017.23 1017.84 1018.05 1018.30 1018.41 1018.31 1018.06 1018.44 1018.61 1018.68 1018.55 1018.52 1018.34 1018.43 1018.66 1018.72 1018.91 1019.10 1019.55 1019.34 1019.34 1019.57 1019.89 1019.79 1019.87 1020.05 1020.33 1020.59
1010.86 1011.25 1011.79 1012.50 1012.99 1013.24 1014.02 1014.42 1014.68 1015.10 1015.23 1015.63 1016.14 1016.37 1016.85 1017.10 1017.22 1017.61 1017.87 1017.95 1017.98 1017.94 1018.05 1018.06 1018.31 1018.33 1018.24 1018.14 1018.07 1018.04 1018.14 1018.24 1018.29 1018.54 1018.73 1018.87 1018.90 1019.05 1019.27 1019.46 1019.76 1019.97 1020.18
1010.32 1010.82 1011.48 1012.04 1012.57 1013.02 1013.45 1013.78 1014.24 1015.11 1015.31 1015.71 1016.19 1016.00 1016.34 1016.59 1016.59 1016.87 1017.24 1017.15 1017.41 1017.45 1017.70 1017.82 1017.81 1017.97 1018.08 1017.82 1017.93 1017.55 1017.61 1017.68 1017.62 1017.96 1018.29 1018.38 1018.51 1018.55 1018.82 1019.11 1019.44 1019.73 1019.86
1009.52 1009.96 1010.70 1011.38 1012.20 1012.83 1013.26 1013.58 1013.80 1014.27 1015.12 1015.52 1015.58 1015.47 1015.83 1016.07 1016.28 1016.64 1017.00 1017.07 1017.05 1016.91 1017.31 1017.56 1017.73 1017.80 1017.79 1017.71 1017.58 1017.28 1017.19 1017.16 1017.29 1017.50 1017.72 1017.92 1018.24 1018.36 1018.50 1018.66 1019.02 1019.32 1019.49
1010.00 1010.17 1010.31 1010.64 1011.50 1012.34 1013.00 1013.28 1013.56 1013.94 1014.67 1014.82 1014.97 1015.19 1015.31 1015.55 1015.74 1016.11 1016.47 1016.66 1016.75 1016.81 1016.87 1017.23 1017.36 1017.50 1017.54 1017.37 1017.31 1017.14 1016.99 1016.98 1016.99 1016.79 1017.07 1017.31 1017.59 1017.92 1018.26 1018.18 1018.31 1018.67 1018.92
1011.56 1012.60 1010.85 1010.78 1011.33 1011.86 1012.56 1013.16 1013.47 1013.77 1014.20 1014.29 1014.52 1014.60 1014.69 1015.27 1015.58 1015.83 1016.02 1016.25 1016.43 1016.75 1016.57 1016.70 1017.06 1017.19 1017.20 1017.03 1017.01 1016.92 1016.83 1016.58 1016.45 1016.65 1016.61 1016.55 1016.91 1017.17 1017.42 1017.71 1018.01 1018.19 1018.36
1011.50 1012.43 1010.47 1010.35 1010.79 1011.52 1012.39 1013.00 1013.52 1013.74 1013.85 1013.99 1013.82 1013.85 1014.16 1014.61 1014.77 1015.08 1015.27 1015.57 1015.77 1016.20 1016.18 1016.09 1016.50 1016.89 1016.91 1016.81 1017.27 1017.06 1016.71 1016.57 1016.56 1016.34 1015.95 1016.11 1016.27 1016.45 1016.89 1017.08 1017.25 1017.56 1017.68
1011.01 1011.14 1010.54 1010.28 1010.79 1010.94 1011.77 1012.30 1012.78 1013.16 1013.29 1013.35 1013.23 1013.37 1013.32 1013.49 1013.99 1014.37 1014.63 1014.92 1015.19 1015.56 1015.82 1016.05 1016.26 1016.54 1016.60 1016.45 1016.92 1017.18 1017.05 1016.53 1015.96 1015.80 1015.78 1015.90 1015.96 1015.98 1016.02 1016.43 1016.59 1016.97 1017.26
1009.44 1009.59 1010.03 1010.43 1010.15 1010.55 1011.11 1011.90 1012.41 1012.71 1012.80 1012.87 1013.16 1013.08 1012.79 1013.00 1013.50 1013.73 1013.84 1014.33 1014.80 1014.89 1015.41 1015.71 1015.87 1016.07 1016.35 1016.28 1016.13 1016.29 1016.62 1016.59 1016.20 1015.77 1015.34 1015.57 1015.72 1015.86 1015.79 1016.29 1016.10 1016.51 1016.64
1008.60 1009.04 1009.51 1009.53 1010.07 1010.34 1010.87 1011.58 1012.05 1012.30 1012.62 1012.35 1012.66 1012.28 1012.11 1012.19 1012.81 1012.67 1012.99 1013.56 1014.06 1014.34 1014.98 1015.34 1015.36 1015.35 1015.65 1015.99 1015.81 1015.38 1015.37 1015.52 1016.14 1016.25 1015.58 1015.25 1015.40 1015.58 1015.83 1016.32 1015.86 1015.95 1015.77
1007.56 1008.28 1008.96 1009.48 1009.94 1010.33 1010.94 1011.39 1011.96 1012.38 1012.48 1012.23 1012.16 1012.41 1012.03 1011.94 1011.88 1012.33 1012.82 1012.90 1013.51 1013.96 1014.25 1014.84 1014.93 1014.93 1015.10 1015.39 1015.43 1015.12 1015.16 1015.30 1015.62 1016.13 1016.20 1015.73 1015.38 1015.03 1015.12 1015.43 1015.31 1015.57 1015.43
1007.77 1008.59 1009.33 1009.88 1010.34 1010.67 1011.07 1011.40 1011.80 1012.31 1012.33 1012.21 1011.98 1012.15 1012.41 1012.59 1012.93 1012.85 1012.95 1012.92 1013.13 1013.69 1014.10 1014.37 1014.47 1014.51 1014.68 1014.79 1014.82 1014.77 1014.76 1015.12 1015.63 1015.49 1015.76 1015.81 1015.36 1014.46 1014.32 1014.46 1014.64 1014.67 1014.32
Wind_Speed
12 13 16 17 18 17 17 15 14 13 14 13 15 16 15 15 15 13 12 12 13 12 12 13 14 14 16 17 16 17 18 17 17 17 16 14 11 11 17 19 18 14 17
17 15 17 18 19 18 16 15 14 13 14 13 14 15 14 14 13 13 13 13 12 12 12 12 13 14 15 14 14 15 15 14 15 17 18 18 17 15 16 18 17 14 16
17 15 15 18 20 18 16 16 14 14 14 14 13 14 14 13 12 11 12 13 12 12 12 12 12 12 13 10 12 13 12 11 11 15 16 7 8 15 16 16 16 15 16
16 13 14 19 19 18 17 15 13 14 14 14 13 13 12 12 10 11 11 10 11 11 11 12 11 11 11 9 11 9 10 10 5 3 5 4 9 14 15 15 15 15 14
15 13 15 20 19 18 18 15 13 13 14 14 14 13 13 12 11 11 10 9 11 10 9 10 10 10 11 7 7 8 9 6 4 6 4 2 6 10 13 14 13 14 13
15 14 18 20 19 18 17 16 15 14 14 13 13 12 11 12 11 10 9 9 9 7 9 8 8 9 9 7 4 4 5 4 4 6 5 7 8 11 10 14 14 14 12
16 14 15 20 18 18 17 17 15 15 14 13 12 12 10 10 10 8 8 8 8 8 7 7 7 6 7 7 4 3 3 6 3 2 4 5 6 11 11 12 12 12 11
20 16 14 19 18 17 18 17 16 15 14 12 11 10 9 8 8 7 5 4 6 7 8 8 7 7 7 5 3 4 3 3 7 1 4 5 7 11 12 11 11 12 11
18 15 14 13 15 18 16 16 16 15 13 12 10 9 8 7 6 7 5 5 6 7 8 8 9 9 6 5 5 6 7 3 3 3 0 4 4 10 12 11 10 9 9
17 14 12 11 9 8 9 16 16 15 13 12 10 9 9 8 9 6 1 5 6 8 9 11 11 11 11 10 9 9 9 10 3 4 2 4 7 11 13 12 10 10 9
13 14 13 11 10 8 7 9 13 14 13 13 11 11 8 4 3 3 4 8 11 9 10 10 10 12 11 12 13 12 11 3 4 4 4 11 14 16 14 14 11 11 10
17 16 15 14 13 11 11 11 7 7 5 5 5 5 3 4 4 4 7 10 12 11 11 11 12 12 12 4 5 12 3 4 3 4 3 14 14 18 16 15 13 12 12
20 16 17 16 15 14 8 8 6 5 5 6 7 7 5 4 3 4 1 1 3 9 3 5 5 4 5 5 4 5 6 6 4 2 6 7 17 16 16 17 18 16 14
13 15 17 15 14 11 8 9 9 8 7 6 7 8 5 3 4 3 3 3 5 2 4 4 3 6 6 7 7 9 7 6 2 3 7 19 17 16 17 17 17 18 17
7 10 10 15 12 9 10 6 7 8 6 4 8 8 6 7 5 5 7 5 6 5 3 4 5 5 6 5 5 7 7 6 7 6 6 19 21 22 19 18 17 18 17
9 10 10 15 10 8 8 6 5 5 6 6 3 7 8 6 6 8 7 8 7 6 5 5 4 4 5 5 6 7 7 6 7 6 5 8 18 16 16 16 18 19 19
11 13 10 10 8 7 7 6 5 5 3 4 5 6 10 9 7 6 5 5 4 4 5 4 4 4 4 4 5 5 5 7 6 7 5 5 8 18 19 19 18 19 18
14 14 15 12 12 9 7 6 4 4 6 6 4 6 10 7 7 6 5 4 5 4 4 3 3 4 4 4 3 5 4 5 7 6 7 7 6 7 14 18 18 18 19
8 15 11 10 15 12 7 5 6 6 6 7 5 7 8 7 7 6 5 5 5 3 3 4 4 4 3 4 4 5 5 5 7 8 7 8 9 7 5 15 19 19 22
13 14 6 6 13 12 8 6 4 4 4 5 6 6 7 6 6 4 5 5 5 3 4 4 5 4 4 4 4 3 4 3 4 5 7 8 9 10 9 8 8 10 20
14 11 8 6 11 10 4 5 3 3 2 3 5 9 9 8 7 7 5 5 6 6 7 7 5 6 4 4 1 2 2 4 3 4 6 5 7 10 7 7 7 7 9
16 25 10 8 9 8 7 5 4 4 4 4 4 7 9 12 10 7 6 6 7 6 6 6 5 3 4 5 4 2 1 4 2 4 2 1 3 4 9 9 8 8 7
9 15 14 11 10 7 7 4 2 2 3 3 3 4 8 10 10 9 8 6 6 5 5 5 6 7 4 4 7 4 2 4 1 1 5 4 3 3 3 6 10 8 8
14 16 14 10 9 7 7 4 6 5 4 6 4 6 7 9 8 9 8 10 7 4 5 5 6 5 4 5 2 5 2 4 3 3 2 4 3 6 4 4 4 5 12
14 17 12 7 8 6 6 6 4 4 3 5 4 4 5 6 8 5 6 6 6 5 5 6 6 5 4 4 4 2 3 2 2 2 4 4 2 4 7 6 8 12 17
8 10 9 7 6 6 6 6 6 7 7 6 8 3 2 2 3 4 7 8 8 6 7 6 7 6 6 5 4 4 4 4 3 3 3 4 4 4 1 2 4 5 7
Wind_Direction
149 147 151 143 140 134 125 115 109 109 95 99 96 96 97 96 94 95 96 93 92 94 103 97 88 86 87 91 93 95 97 98 100 100 94 90 102 113 111 107 105 104 101
140 144 151 146 145 140 133 123 116 104 101 95 99 102 102 99 100 98 94 96 95 102 103 102 96 93 89 89 93 89 94 103 114 110 95 92 95 101 97 99 102 104 105
137 141 146 149 146 145 142 135 122 116 111 106 110 112 109 107 103 99 102 104 101 99 102 104 103 100 96 95 90 93 104 108 123 116 103 98 97 101 100 101 104 102 105
134 140 143 147 147 148 147 142 134 128 123 118 112 117 114 110 103 105 103 109 106 105 106 104 108 108 108 104 101 107 110 124 108 86 82 103 104 106 107 108 108 104 107
138 135 143 144 149 148 151 150 149 139 133 126 123 119 122 119 116 110 105 106 109 111 108 117 115 117 116 114 110 128 118 118 141 129 59 87 107 113 117 113 117 114 109
130 131 142 146 147 149 150 152 153 145 139 135 133 130 127 123 118 118 113 108 102 112 124 125 131 139 133 131 134 119 113 138 54 60 29 139 117 122 119 115 112 116 120
130 137 142 145 147 148 149 151 152 150 148 144 143 141 138 134 128 125 127 130 133 127 133 143 143 159 149 146 179 146 157 160 105 11 77 108 122 137 122 122 124 125 124
138 142 145 145 147 149 152 154 154 156 155 154 153 150 151 147 138 136 138 154 172 163 158 159 153 157 159 162 197 258 224 182 84 145 148 103 139 144 142 139 133 133 133
133 138 142 145 151 153 155 161 161 163 161 162 161 161 165 170 167 173 183 195 217 195 177 179 171 168 180 210 219 252 274 263 117 184 75 133 159 169 153 155 147 144 150
134 139 145 144 143 148 159 164 167 166 167 172 173 180 183 195 209 180 94 315 244 221 220 201 205 205 218 231 236 242 252 272 145 158 197 199 172 194 168 162 160 165 172
137 148 150 153 154 160 160 172 172 173 176 185 184 194 199 211 145 300 338 295 273 239 229 221 225 224 228 230 229 235 233 235 272 179 200 235 188 198 183 164 174 181 184
155 161 159 164 167 174 174 172 172 182 175 183 186 194 180 151 184 253 263 284 276 259 244 235 234 233 229 201 229 229 217 215 234 240 182 200 193 199 186 174 180 193 196
168 166 171 170 173 178 180 164 174 182 184 188 193 183 148 162 216 265 295 262 248 252 227 242 238 230 220 213 200 196 207 206 225 157 135 173 192 200 194 190 183 196 203
167 166 174 169 169 170 154 164 176 188 185 182 194 180 147 173 213 252 276 250 250 193 229 233 237 225 221 221 201 196 200 206 182 177 206 193 216 212 205 200 195 199 201
164 136 156 157 169 153 158 167 183 189 167 164 187 168 168 206 190 197 233 231 245 191 200 232 230 220 228 227 196 198 216 218 212 189 202 206 209 212 208 208 208 205 208
154 160 141 157 163 157 146 145 138 144 154 131 182 166 177 203 190 198 212 210 223 189 209 207 219 238 229 221 216 212 216 215 215 184 180 198 203 201 208 213 215 213 211
169 154 151 150 161 156 153 141 146 160 161 150 194 199 199 204 188 202 182 203 190 188 196 211 218 237 243 246 244 220 201 237 207 185 184 188 207 208 211 208 215 216 213
165 163 161 169 164 160 165 167 164 165 169 189 190 180 192 191 188 175 170 202 208 173 187 221 211 230 233 224 236 245 224 208 219 208 181 192 193 210 210 207 211 215 217
158 168 166 161 165 169 170 168 178 203 170 199 174 184 185 190 175 164 183 207 191 200 211 212 229 207 218 235 247 247 232 214 203 215 197 188 190 198 205 214 208 216 221
25 329 161 165 168 169 159 160 187 202 200 185 184 188 171 167 178 180 190 201 188 197 219 204 216 223 207 216 235 280 262 235 212 194 209 203 195 193 204 198 209 216 222
139 332 232 166 159 157 152 160 166 196 201 198 198 186 171 174 179 191 193 211 190 197 217 202 192 220 237 194 160 267 302 240 262 256 214 200 203 211 204 186 194 205 215
166 191 235 206 172 158 155 165 160 174 218 206 198 202 176 180 179 190 198 217 198 211 198 210 189 177 231 179 172 122 306 312 250 203 183 238 257 233 203 203 196 200 211
153 191 204 210 171 165 164 145 178 181 237 188 213 203 201 172 180 195 194 213 223 195 194 207 189 184 206 231 204 158 170 226 271 321 226 189 263 281 247 195 214 192 209
199 185 196 181 165 174 169 160 184 207 234 243 197 204 190 168 172 186 191 206 215 201 194 216 215 205 172 216 225 213 183 159 181 310 308 291 251 266 266 187 210 271 237
167 174 175 151 152 163 168 180 213 241 240 262 261 195 237 180 174 216 196 208 208 206 206 208 231 211 197 195 207 234 210 212 170 138 294 294 220 233 237 216 172 211 242
87 134 147 133 154 171 186 210 235 251 253 266 262 174 122 329 331 278 249 213 214 199 216 204 218 225 210 213 217 212 185 168 200 179 201 266 221 262 132 218 230 212 210